This is the latest recevied weather packets stored in our database for station/object HA8BKG-10. If no packets are shown the sender has not sent any weather packets the latest 10 day(s).
| Time | Temp. | Humidity | Pressure | Rain* | Wind** | Luminosity | Snow |
|---|---|---|---|---|---|---|---|
| 1777511800 | 18.33° C | 32% | 1024.7 hPa | - | - | - | - |
| 1777510938 | 18.33° C | 32% | 1024.6 hPa | - | - | - | - |
| 1777510899 | 18.33° C | 32% | 1024.6 hPa | - | - | - | - |
| 1777510036 | 18.89° C | 32% | 1024.5 hPa | - | - | - | - |
| 1777509999 | 18.89° C | 32% | 1024.5 hPa | - | - | - | - |
| 1777509163 | 18.33° C | 31% | 1024.3 hPa | - | - | - | - |
| 1777509099 | 18.33° C | 31% | 1024.3 hPa | - | - | - | - |
| 1777508199 | 18.89° C | 32% | 1024.2 hPa | - | - | - | - |
| 1777507299 | 18.89° C | 31% | 1024.1 hPa | - | - | - | - |
| 1777506399 | 19.44° C | 31% | 1024.1 hPa | - | - | - | - |
| 1777505498 | 18.89° C | 32% | 1024.2 hPa | - | - | - | - |
| 1777504598 | 18.89° C | 32% | 1024.1 hPa | - | - | - | - |
| 1777503698 | 18.89° C | 31% | 1024 hPa | - | - | - | - |
| 1777502798 | 19.44° C | 31% | 1024.1 hPa | - | - | - | - |
| 1777501898 | 19.44° C | 31% | 1024 hPa | - | - | - | - |
| 1777500998 | 20° C | 30% | 1023.9 hPa | - | - | - | - |
| 1777500097 | 20° C | 30% | 1024 hPa | - | - | - | - |
| 1777499197 | 19.44° C | 30% | 1023.8 hPa | - | - | - | - |
| 1777498297 | 20° C | 31% | 1023.7 hPa | - | - | - | - |
| 1777497397 | 19.44° C | 31% | 1023.5 hPa | - | - | - | - |
| 1777496497 | 18.89° C | 31% | 1023.4 hPa | - | - | - | - |
| 1777495597 | 18.89° C | 31% | 1023.4 hPa | - | - | - | - |
| 1777494696 | 18.33° C | 31% | 1023.1 hPa | - | - | - | - |
| 1777493796 | 18.33° C | 31% | 1023 hPa | - | - | - | - |
| 1777492896 | 18.33° C | 31% | 1022.7 hPa | - | - | - | - |
* Rain since midnight (hover to see other rain measurements)
** Current wind speed in m/s (hover to see current wind gust speed)